Regional Weather Roundup
Issued by NWS

Home | Current Version | Previous Version | Graphics & Text | Print | Product List | Glossary On
Versions: 1 2 3 4 5 6 7 8 9 10 11 12 13 14 15 16 17 18 19 20 21 22 23 24 25 26 27 28 29 30 31 32 33 34 35 36 37 38 39 40 41 42 43 44 45 46 47 48 49 50
000
ASUS43 KMKX 042220
RWRWI

WISCONSIN REGIONAL WEATHER ROUNDUP
NATIONAL WEATHER SERVICE MILWAUKEE/SULLIVAN WI
400 PM CST WED MAR 04 2015

NOTE: "FAIR" INDICATES FEW OR NO CLOUDS BELOW 12,000 FEET WITH NO
SIGNIFICANT WEATHER AND/OR OBSTRUCTIONS TO VISIBILITY.

WIZ001-002-006>008-014>016-023>028-042300-
NORTHWEST WISCONSIN

CITY           SKY/WX    TMP DP  RH WIND       PRES   REMARKS
SUPERIOR ARPT  SUNNY      5 -13  43 NW13      30.23R WCI -12
ASHLAND        CLOUDY     5 -12  45 W13G24    30.19R WCI -12
HAYWARD        CLOUDY     7 -10  46 NW9       30.15R WCI  -7
SIREN          SUNNY      7 -12  42 NW16      30.22R WCI -11
CUMBERLAND     CLOUDY     7  -9  47 W15       30.16R WCI -11
RICE LAKE      MOSUNNY    8 -11  42 W14G20    30.20R WCI  -9
CHETEK         CLOUDY     9 -10  43 W10G18    30.18R WCI  -6
LADYSMITH      MOSUNNY    8  -9  45 W16       30.16R WCI -10
EAU CLAIRE     SUNNY     10 -10  40 NW15      30.20R WCI  -7
MENOMONIE      SUNNY     12  -8  40 W16       30.21R WCI  -5
NEW RICHMOND   SUNNY      9  -8  44 NW15G21   30.21R WCI  -8
OSCEOLA        MOSUNNY    9  -9  42 NW15      30.26R WCI  -7
$$

WIZ003>005-009-010-017-018-042300-
NORTH CENTRAL WISCONSIN

CITY           SKY/WX    TMP DP  RH WIND       PRES   REMARKS
MANITOWISH WTR MOSUNNY    2 -10  57 NW9       30.05R WCI -12
ARBOR VITAE    CLOUDY     5  -7  57 NW10G17   30.05R WCI -10
WOODRUFF       CLOUDY     5  -7  57 NW10G17   30.05R WCI -10
RHINELANDER    CLOUDY     5 -10  50 NW12G21   30.04R WCI -11
EAGLE RIVER    CLOUDY     3  -8  58 NW13G21   30.03R WCI -14
LAND O LAKES   CLOUDY     4 -10  52 NW10G18   30.03R WCI -12
PHILLIPS       CLOUDY     5 -12  46 W8G17     30.09R WCI  -9
TOMAHAWK       MOSUNNY    7 -12  41 W13G18    30.07R WCI  -9
MEDFORD        SUNNY      7 -11  42 W17G23    30.09R WCI -12
MERRILL        SUNNY     10 -12  37 W12G17    30.08R WCI  -5
$$

WIZ029-030-035-036-043>047-042300-
CENTRAL WISCONSIN

CITY           SKY/WX    TMP DP  RH WIND       PRES   REMARKS
WAUSAU         SUNNY      8  -9  45 W21       30.09R WCI -12
MOSINEE        MOSUNNY    9  -9  43 W18G31    30.11R WCI -10
MARSHFIELD     SUNNY      9  -8  46 NW15      30.13R WCI  -8
STEVENS POINT  SUNNY      9 -11  40 NW15G24   30.13R WCI  -8
WAUPACA        SUNNY     16 -11  30 W14G23    30.14S WCI   1
WAUTOMA        SUNNY     15  -7  37 NW17G24   30.16R WCI  -1
WISC RAPIDS    SUNNY     12  -9  38 NW18G25   30.15R WCI  -6
CAMP DOUGLAS   MOSUNNY   14  -4  44 W14       30.17R WCI  -1
$$

WIZ011>013-019>022-031-037>040-048>050-042300-
NORTHEAST WISCONSIN

CITY           SKY/WX    TMP DP  RH WIND       PRES   REMARKS
ANTIGO         SUNNY      8 -10  43 NW20      30.04R WCI -12
SHAWANO        MOSUNNY   15 -10  32 W15G21    30.11R WCI   0
OCONTO         MOSUNNY   14 -10  33 W14G23    30.10R WCI   0
STURGEON BAY   MOSUNNY   12  -8  40 W15G22    30.10R WCI  -4
GREEN BAY      SUNNY     13  -7  40 W21G30    30.12R WCI  -5
MANITOWOC      SUNNY     15  -7  37 W23G33    30.11R WCI  -3
APPLETON       MOSUNNY   12 -11  34 W20G31    30.12R WCI  -6
CLINTONVILLE   SUNNY     12  -8  40 W15G22    30.13R WCI  -4
OSHKOSH        SUNNY     15  -5  40 W17G24    30.13R WCI  -1
$$

WIZ032>034-041-042-053>061-042300-
SOUTHWEST WISCONSIN

CITY           SKY/WX    TMP DP  RH WIND       PRES   REMARKS
LA CROSSE      PTSUNNY   16  -3  43 W20G28    30.24R WCI  -1
SPARTA         SUNNY     15  -5  41 NW13      30.21R WCI   1
VIROQUA        SUNNY     13  -4  48 W17       30.18R WCI  -4
BOSCOBEL       SUNNY     17  -4  39 W9        30.24R WCI   6
PRAIRIE DU CHI SUNNY     15  -3  43 W10       30.26R WCI   3
PLATTEVILLE    SUNNY     15   1  53 W14G21    30.20F WCI   0
$$

WIZ056-057-062-063-064-067-068-042300-
SOUTH CENTRAL WISCONSIN

CITY           SKY/WX    TMP DP  RH WIND       PRES   REMARKS
REEDSBURG      SUNNY     15  -4  43 W10G21    30.18R WCI   2
BARABOO/DELLS  SUNNY     15  -6  38 W16G22    30.17R WCI  -1
LONE ROCK      SUNNY     17  -5  37 NW15      30.22R WCI   2
MINERAL POINT  SUNNY     18  -4  38 W15       30.17F WCI   3
MADISON        MOSUNNY   17  -7  34 NW15G24   30.17R WCI   2
MIDDLETON      SUNNY     19  -8  29 NW16G24   30.17R WCI   5
WATERTOWN      SUNNY     17  -2  41 W14G22    30.16R WCI   3
MONROE         SUNNY     18   0  45 W14       30.18R WCI   4
JANESVILLE     SUNNY     19  -2  38 NW17G23   30.18R WCI   4
$$

WIZ051-052-058>065-066-070>072-042300-
SOUTHEAST WISCONSIN

CITY           SKY/WX    TMP DP  RH WIND       PRES   REMARKS
MILWAUKEE      PTSUNNY   20  -6  31 NW14G25   30.16R WCI   7
WAUKESHA       SUNNY     16  -4  41 NW22      30.17R WCI  -2
MILWAUKEE/TIMM SUNNY     18  -8  32 W20G30    30.15R WCI   1
RACINE         SUNNY     20  -4  34 NW15G23   30.18R WCI   6
BURLINGTON     SUNNY     17  -4  38 W15       30.17R WCI   3
KENOSHA        SUNNY     19  -1  41 W13       30.16R WCI   6
FOND DU LAC    SUNNY     17  -6  35 NW20G30   30.14R WCI   1
SHEBOYGAN      SUNNY     15  -4  42 NW13      30.13R WCI   1
WEST BEND      SUNNY     18  -6  35 W16G23    30.14R WCI   3
JUNEAU         SUNNY     16  -5  38 W18G24    30.15R WCI   0
$$

LSZ147-162-042300-
LAKE SUPERIOR

STATION/POSITION TIME  TEMP    WIND        PRES    WAVE
                       AIR SEA DIR/SP/G            HT/PER
                 (UTC) (F)     (DEG/KT/KT) (MB)    (FT/S)
DEVILS ISLAND    2100    5     280/ 21/ 25 1022.9R
PORT WING        2140    5     280/ 15/ 21 1023.0R
SAXON HARBOR     2100    5     290/  9/ 17 1021.3R
$$

LMZ867-665-643>646-042300-
LAKE MICHIGAN

STATION/POSITION TIME  TEMP    WIND        PRES    WAVE
                       AIR SEA DIR/SP/G            HT/PER
                 (UTC) (F)     (DEG/KT/KT) (MB)    (FT/S)
NORTHPORT PIER   2209   13     300/ 14/ 22 1018.6R
SISTER BAY       2143   16     310/ 21/ 24   N/A
KEWAUNEE LAKESHO 2100   15     280/ 12/ 20 1017.8R
SHEBOYGAN LAKESH 2100   15     290/ 18/ 23 1021.5R
PORT WASHINGTON  2120   18     290/ 10/ 21 1021.3R
MILWAUKEE LAKESH 2200   18     290/ 17/ 25   N/A
KENOSHA   LAKESH 2100   18     300/ 14/ 19 1021.3R
$$

TC  - TEMPERATURE IN CELSIUS
VSB - VISIBILITY IN STATUTE MILES
WCI - WIND CHILL INDEX
HX  - HEAT INDEX




USA.gov is the U.S. government's official web portal to all federal, state and local government web resources and services.